Regional Weather Roundup
Issued by NWS

Home | Current Version | Previous Version | Graphics & Text | Print | Product List | Glossary On
Versions: 1 2 3 4 5 6 7 8 9 10 11 12 13 14 15 16 17 18 19 20 21 22 23 24 25 26 27 28 29 30 31 32 33 34 35 36 37 38 39 40 41 42 43 44 45 46 47 48 49 50
000
ASUS45 KTFX 291404
RWRMT
MONTANA HOURLY WEATHER ROUNDUP
NATIONAL WEATHER SERVICE GREAT FALLS MT
704 AM MST THU JAN 29 2015

NOTE: "FAIR" INDICATES FEW OR NO CLOUDS BELOW 12000 FEET WITH NO
SIGNIFICANT WEATHER AND/OR OBSTRUCTIONS TO VISIBILITY.

* THESE STATIONS ARE NOT UNDER NWS QUALITY CONTROL. THEY DO NOT
   REPORT WEATHER SUCH AS PRECIPITATION OR FOG.

MTZ001>007-043-291500-
WEST OF THE DIVIDE
CITY           SKY/WX    TMP DP  RH WIND       PRES   REMARKS
KALISPELL      FOG        9   7  91 CALM      30.44R VSB M1/4
MISSOULA       PTCLDY    21  19  92 SE3       30.47S
BUTTE          CLEAR     16  12  84 SE5       30.40S WCI   8
MULLAN PASS    MOCLDY    28  21  75 SW5       30.33F WCI  22
* ANACONDA     CLEAR     19  16  88 SE6        N/A   WCI  11
* ESSEX        N/A       17  15  92 N/A        N/A
* LINCOLN      N/A       12   9  88 N/A        N/A
* LOOKOUT PASS N/A       23  22  96 S2         N/A
* POLSON       N/A       25  24  96 N/A        N/A
* RONAN APT    CLEAR     19  19 100 N/A        N/A
* SEELEY LAKE  N/A        9   6  87 NE1G6      N/A
* THOMP F APT  PTCLDY    25  22  88 N4G9       N/A
* YAAK HILL    N/A       29  27  92 S1         N/A
$$

MTZ008-052>055-291500-
SOUTHWEST MONTANA
CITY           SKY/WX    TMP DP  RH WIND       PRES   REMARKS
BOZEMAN        CLEAR     25  18  75 CALM      30.42S
DILLON         PTCLDY    21  19  92 S10       30.41R WCI  10
* W YELLOWSTON PTCLDY    24  23  96 N/A        N/A
* THREE FORKS  CLEAR     19  19 100 N/A        N/A
* BOULDER HILL N/A       23  16  74 SW9        N/A   WCI  13
* MONIDA PASS  N/A       18  18 100 VRB4       N/A
* RAYNOLDS PAS N/A       22  10  60 S6         N/A   WCI  14
* WHITEHALL    N/A       20  16  84 NW3        N/A
* WISE RIVER   N/A       13   9  84 NW2        N/A
$$

MTZ009>010-012-014-046-048-049-054-291500-
EAST SLOPES AND CENTRAL MONTANA
CITY           SKY/WX    TMP DP  RH WIND       PRES   REMARKS
CUT BANK       FOG       25  21  85 CALM      30.30F
GREAT FALLS    CLEAR     30  23  75 S12       30.32F WCI  20
HELENA         CLEAR     25  19  78 CALM      30.41S
MALMSTROM AFB  CLEAR     27  23  85 S12       30.34S WCI  16
* DEARBORN     N/A       35  23  62 S7         N/A   WCI  29
* EAST GLACIER N/A       32  22  67 W21G29     N/A   WCI  20
* MONARCH      N/A       27  19  72 SW6G13     N/A   WCI  20
* PENDROY      N/A       27  18  69 SW2        N/A
* ROGERS PASS  N/A       27  20  75 S13G21     N/A   WCI  16
* SWEET GRASS  N/A       25  25 100 S10        N/A   WCI  15
$$

MTZ011-013-016-021-035-040-045-047-050-051-291500-
NORTH CENTRAL MONTANA
CITY           SKY/WX    TMP DP  RH WIND       PRES   REMARKS
HAVRE          FOG       23  21  92 E3        30.37S
LEWISTOWN      CLEAR     25  19  78 SE7       30.35S WCI  17
* N BAR RANCH  CLEAR     27  19  72 N5        30.36F WCI  21
* CHESTER      N/A       24  22  92 NW1        N/A
* DENTON       N/A       22  20  92 S2         N/A
* GEYSER       N/A       21  17  84 SW4        N/A
* JUDITH GAP   N/A       22  21  96 SE8        N/A   WCI  13
* LOMA         N/A       21  19  92 N/A        N/A
$$

MTZ017>020-022>027-061-062-291500-
NORTHEAST MONTANA
CITY           SKY/WX    TMP DP  RH WIND       PRES   REMARKS
GLASGOW        FOG       19  18  96 E6        30.43S WCI  11
GLENDIVE       CLOUDY    27  23  85 W6        30.47R WCI  20
JORDAN         CLEAR     19  16  88 CALM      30.43S
SIDNEY         CLOUDY    27  19  72 W3        30.49R
WOLF POINT     CLEAR     19  16  88 CALM      30.47R
* BEAVER HILL  N/A       25  22  88 W9         N/A   WCI  16
* CIRCLE       N/A       20  18  92 N/A        N/A
* LINDSAY DVD  N/A       22  21  96 W4         N/A
* NAVAJO       N/A       18  16  92 NW9        N/A   WCI   7
* SACO         N/A       21  19  92 S4         N/A
$$

MTZ028>042-056>058-291500-
SOUTHCENTRAL AND SOUTHEAST MONTANA
CITY           SKY/WX    TMP DP  RH WIND       PRES   REMARKS
BAKER          CLOUDY    27  25  92 W12       30.44R WCI  16
BILLINGS       CLEAR     28  25  89 SW12      30.40F WCI  18
LIVINGSTON     CLEAR     27  21  78 NW14G23   30.38R WCI  16
MILES CITY     FOG       19  18  96 S5        30.46R WCI  12
* LAUREL APT   CLEAR     25  12  58 N/A        N/A
* ROUNDUP APT  CLEAR     25  18  75 SW5        N/A   WCI  19
* ALZADA       N/A       22  20  92 W3         N/A
* HYSHAM       N/A       30  25  82 W2         N/A
* LAME DEER    N/A       29  23  78 N/A        N/A
* REED POINT   N/A       21  21 100 E2         N/A
* ROSCOE HILL  N/A       30  14  51 SW6        N/A   WCI  24
$$

REGIONAL REPORTS...DAKOTAS
CITY           SKY/WX    TMP DP  RH WIND       PRES   REMARKS
WILLISTON      CLOUDY    21  18  88 NW8       30.47R WCI  11
DICKINSON      CLOUDY    27  19  72 NW17      30.40R WCI  14
CROSBY         CLOUDY    21  19  92 N12       30.46R WCI   9
WATFORD CITY   CLOUDY    23  19  85 NW10G16   30.44R WCI  13
BISMARCK       CLOUDY    27  19  72 NW21G28   30.42R WCI  13
GRAND FORKS    CLOUDY    16   9  74 N24G29    30.40R WCI  -2
FARGO          CLOUDY    21  12  68 N21G31    30.36R WCI   5
BUFFALO SD     CLEAR     21  19  92 NW14      30.35R WCI   8
RAPID CITY     CLEAR     21  19  92 W8        30.44R WCI  11
$$

REGIONAL REPORTS...WYOMING/IDAHO/WASHINGTON
CITY           SKY/WX    TMP DP  RH WIND       PRES   REMARKS
GILLETTE       CLEAR     23  19  85 W6        30.44R WCI  16
SHERIDAN       CLEAR     21  16  81 S3        30.43S
CODY           PTCLDY    30  25  82 SW13      30.40S WCI  20
YELLOWSTONE LA MOCLDY    16  14  92 CALM      30.45R
SALMON         CLOUDY    21  19  92 CALM      30.49R VSB M1/4
MULLAN PASS    MOCLDY    28  21  75 SW5       30.33S WCI  22
SAND POINT     FOG       32  32 100 NE5       30.45F VSB 1/2  WCI  27
SPOKANE        FOG       30  30 100 N6        30.41F VSB M1/4 WCI  24
$$

REGIONAL REPORTS...ALBERTA
CITY           SKY/WX    TMP DP  RH WIND       PRES   REMARKS
EDMONTON       FOG       23  21  92 SE10      30.28F VSB 1 1/2 WCI  13

$$



USA.gov is the U.S. government's official web portal to all federal, state and local government web resources and services.